This demonstration page uses our WeatherBlox Daily Observations layout. Learn more.

Left ArrowRight Arrow

Hourly Observations for November 29, 2018

Temp ( °F °C ) Dew Point ( °F °C ) Humidity (%) Winds ( mph kmh ) Pressure ( in mb ) Visibility ( mi km ) Precip ( " mm )
12:53 am 00:53 Clear 42 5.6 24 -4.4 49 49 SE 3 6 29.76 1008 10 16 0.00 0.00
1:53 am 01:53 Clear 40 4.4 25 -3.9 55 55 ESE 6 9 29.75 1007 10 16 0.00 0.00
2:53 am 02:53 Clear 36 2.2 25 -3.9 64 64 N 5 7 29.76 1008 10 16 0.00 0.00
3:53 am 03:53 Clear 36 2.2 25 -3.9 64 64 N 7 11 29.76 1008 10 16 0.00 0.00
4:53 am 04:53 Clear 34 1.1 25 -3.9 70 70 N 5 7 29.77 1008 10 16 0.00 0.00
5:53 am 05:53 Clear 35 1.7 25 -3.9 67 67 Calm 29.78 1009 10 16 0.00 0.00
6:53 am 06:53 Clear 34 1.1 25 -3.9 70 70 NNW 3 6 29.81 1009 10 16 0.00 0.00
7:53 am 07:53 Sunny 35 1.7 26 -3.3 70 70 WSW 6 9 29.80 1009 10 16 0.00 0.00
8:53 am 08:53 Sunny 51 10.6 29 -1.7 43 43 SW 5 7 29.80 1009 10 16 0.00 0.00
9:53 am 09:53 Sunny 66 18.9 25 -3.9 21 21 SW 12 19 29.79 1009 10 16 0.00 0.00
10:53 am 10:53 Sunny 70 21.1 24 -4.4 18 18 WSW 14 22 29.80 1009 10 16 0.00 0.00
11:53 am 11:53 Sunny 76 24.4 22 -5.6 13 13 WSW 20 31 29.77 1008 10 16 0.00 0.00
1:53 pm 13:53 Sunny 79 26.1 17 -8.3 10 10 WSW 22 35 29.71 1006 10 16 0.00 0.00
2:53 pm 14:53 Sunny 79 26.1 21 -6.1 11 11 W 22 35 29.70 1006 10 16 0.00 0.00
3:53 pm 15:53 Sunny 79 26.1 23 -5 12 12 WSW 15 24 29.70 1006 10 16 0.00 0.00
4:53 pm 16:53 Sunny 78 25.6 24 -4.4 13 13 WSW 13 20 29.71 1006 10 16 0.00 0.00
5:53 pm 17:53 Clear 66 18.9 27 -2.8 23 23 WSW 8 13 29.74 1007 10 16 0.00 0.00
6:53 pm 18:53 Clear 63 17.2 26 -3.3 25 25 Calm 29.76 1008 10 16 0.00 0.00
7:53 pm 19:53 Clear 69 20.6 24 -4.4 18 18 WSW 3 6 29.75 1007 10 16 0.00 0.00
8:53 pm 20:53 Clear 63 17.2 26 -3.3 25 25 W 3 6 29.74 1007 10 16 0.00 0.00
9:53 pm 21:53 Clear 58 14.4 26 -3.3 29 29 Calm 29.71 1006 10 16 0.00 0.00
10:53 pm 22:53 Clear 56 13.3 27 -2.8 33 33 SSE 8 13 29.71 1006 10 16 0.00 0.00
11:53 pm 23:53 Clear 51 10.6 27 -2.8 39 39 SSE 6 9 29.69 1006 10 16 0.00 0.00

Powered by AerisWeather